Weather History for KETC - July, 2012

Change the Weather History Date:

Friday, July 6, 2012

  Actual Average Record
Temperature  
Mean Temperature 84 °F -  
Max Temperature 97 °F 89 °F 101 °F (2015)
Min Temperature 73 °F 66 °F 55 °F (1979)
Cooling Degree Days 20    
Growing Degree Days 34 (Base 50)    
Moisture  
Dew Point 71 °F    
Average Humidity 71    
Maximum Humidity 91    
Minimum Humidity 45    
Precipitation  
Precipitation 0.00 in - - ()
Sea Level Pressure  
Sea Level Pressure 29.91 in    
Wind  
Wind Speed 2 mph (WSW)    
Max Wind Speed 13 mph    
Max Gust Speed 20 mph    
Visibility 10 miles    
Events      
Averages and records for this station are not official NWS values.
T = Trace of Precipitation, MM = Missing Value Source: NWS Daily Summary

Daily Weather History Graph

Daily Weather History Graph

Search for Another Location

Airport or City:

Trip Planner

Search our weather history database for the weather conditions in past years. The results will help you decide how hot, cold, wet, or windy it might be!

Date:

Astronomy

Jul. 06, 2012 Rise Set
Actual Time 5:59 AM EDT 8:29 PM EDT
Civil Twilight 5:30 AM EDT 8:59 PM EDT
Nautical Twilight 4:53 AM EDT 9:36 PM EDT
Astronomical Twilight 4:12 AM EDT 10:17 PM EDT
Moon 10:26 PM EDT (7/6) 9:10 AM EDT (7/6)
Length of Visible Light 15h 29m
Length of Day
14h 29m
Waning Gibbous, 89% of the Moon is Illuminated
Jul 6
Waning Gibbous
Jul 10
Last Quarter
Jul 19
New
Jul 26
First Quarter
Aug 1
Full

Hourly Weather History & Observations

Time (EDT) Temp. Heat Index Dew Point Humidity Pressure Visibility Wind Dir Wind Speed Gust Speed Precip Events Conditions
12:35 AM 75.2 °F - 70.7 °F 86% 29.88 in - South 3.5 mph - N/A   Clear
12:55 AM 76.6 °F - 68.5 °F 76% 29.88 in 10.0 mi Calm Calm - N/A   Clear
1:15 AM 75.2 °F - 69.3 °F 82% 29.88 in 10.0 mi SSW 4.6 mph - N/A   Clear
1:35 AM 75.6 °F - 68.5 °F 79% 29.87 in 10.0 mi Calm Calm - N/A   Clear
1:55 AM 75.2 °F - 68.7 °F 80% 29.88 in 10.0 mi Calm Calm - N/A   Clear
2:15 AM 74.3 °F - 69.6 °F 85% 29.87 in 10.0 mi South 3.5 mph - N/A   Clear
2:35 AM 74.1 °F - 69.6 °F 86% 29.86 in 10.0 mi Calm Calm - N/A   Clear
2:55 AM 73.8 °F - 69.4 °F 86% 29.87 in 10.0 mi Calm Calm - N/A   Clear
3:15 AM 74.1 °F - 69.6 °F 86% 29.87 in 10.0 mi Calm Calm - N/A   Clear
3:35 AM 73.2 °F - 69.8 °F 89% 29.88 in 10.0 mi Calm Calm - N/A   Clear
3:55 AM 73.2 °F - 69.6 °F 88% 29.88 in 7.0 mi SSW 3.5 mph - N/A   Clear
4:35 AM 74.3 °F - 68.7 °F 83% 29.89 in 10.0 mi Calm Calm - N/A   Clear
4:55 AM 74.3 °F - 68.7 °F 83% 29.89 in 10.0 mi SW 3.5 mph - N/A   Clear
5:15 AM 74.3 °F - 68.7 °F 83% 29.89 in 10.0 mi SSW 3.5 mph - N/A   Clear
5:35 AM 74.3 °F - 68.7 °F 83% 29.90 in 10.0 mi SSW 3.5 mph - N/A   Scattered Clouds
5:55 AM 74.3 °F - 68.5 °F 82% 29.91 in 10.0 mi Calm Calm - N/A   Mostly Cloudy
6:15 AM 74.1 °F - 68.7 °F 83% 29.91 in 10.0 mi Calm Calm - N/A   Scattered Clouds
6:35 AM 73.6 °F - 68.7 °F 85% 29.92 in 10.0 mi Calm Calm - N/A   Scattered Clouds
6:55 AM 73.8 °F - 69.4 °F 86% 29.92 in 10.0 mi Calm Calm - N/A   Scattered Clouds
7:15 AM 74.3 °F - 70.0 °F 86% 29.92 in 10.0 mi SSW 3.5 mph - N/A   Clear
7:35 AM 75.6 °F - 70.0 °F 83% 29.93 in 10.0 mi WSW 3.5 mph - N/A   Clear
7:55 AM 76.8 °F - 70.0 °F 79% 29.93 in 10.0 mi Calm Calm - N/A   Clear
8:15 AM 78.3 °F - 70.3 °F 77% 29.94 in 10.0 mi West 4.6 mph - N/A   Clear
8:35 AM 79.3 °F - 70.0 °F 73% 29.94 in 10.0 mi WSW 5.8 mph - N/A   Clear
8:55 AM 79.7 °F - 70.0 °F 72% 29.94 in 10.0 mi SW 4.6 mph - N/A   Scattered Clouds
9:15 AM 80.4 °F 83.8 °F 70.2 °F 71% 29.94 in 10.0 mi WSW 3.5 mph - N/A   Scattered Clouds
9:35 AM 81.5 °F 85.5 °F 70.7 °F 70% 29.94 in 10.0 mi West 3.5 mph - N/A   Clear
9:55 AM 82.4 °F 87.0 °F 71.4 °F 69% 29.94 in 10.0 mi Calm Calm - N/A   Clear
10:15 AM 83.7 °F 89.2 °F 72.1 °F 68% 29.94 in 10.0 mi NW 3.5 mph - N/A   Clear
10:35 AM 84.7 °F 90.4 °F 71.8 °F 65% 29.94 in 10.0 mi Calm Calm - N/A   Clear
10:55 AM 85.6 °F 91.8 °F 72.1 °F 64% 29.94 in 10.0 mi NW 3.5 mph - N/A   Clear
11:15 AM 86.2 °F 92.2 °F 71.8 °F 62% 29.94 in 10.0 mi NW 3.5 mph - N/A   Clear
11:35 AM 87.1 °F 93.6 °F 72.3 °F 61% 29.94 in 10.0 mi West 4.6 mph - N/A   Clear
11:55 AM 88.0 °F 95.1 °F 72.3 °F 60% 29.94 in 10.0 mi West 3.5 mph - N/A   Clear
12:15 PM 88.5 °F 96.3 °F 72.9 °F 60% 29.94 in 10.0 mi WSW 4.6 mph - N/A   Clear
12:35 PM 90.1 °F 98.9 °F 73.4 °F 58% 29.94 in 10.0 mi North 3.5 mph - N/A   Clear
12:55 PM 91.0 °F 99.8 °F 73.4 °F 56% 29.94 in 10.0 mi West 5.8 mph - N/A   Clear
1:15 PM 91.4 °F 99.5 °F 72.7 °F 54% 29.93 in 10.0 mi WSW 3.5 mph - N/A   Clear
1:35 PM 91.8 °F 100.3 °F 72.9 °F 54% 29.93 in 10.0 mi SSW 3.5 mph - N/A   Clear
1:55 PM 92.3 °F 100.3 °F 72.5 °F 52% 29.93 in 10.0 mi West 3.5 mph - N/A   Clear
2:15 PM 92.8 °F 101.5 °F 72.7 °F 52% 29.92 in 10.0 mi WSW 3.5 mph - N/A   Clear
2:35 PM 93.4 °F 100.9 °F 71.6 °F 49% 29.92 in 10.0 mi Calm Calm - N/A   Clear
2:55 PM 94.1 °F 102.5 °F 72.1 °F 49% 29.92 in 10.0 mi SW 3.5 mph - N/A   Clear
3:15 PM 94.1 °F 103.8 °F 73.4 °F 51% 29.92 in 10.0 mi Calm Calm - N/A   Clear
3:35 PM 95.0 °F 105.2 °F 73.6 °F 50% 29.91 in 10.0 mi SSE 3.5 mph - N/A   Clear
3:55 PM 95.5 °F 104.4 °F 72.3 °F 47% 29.91 in 10.0 mi Calm Calm - N/A   Clear
4:15 PM 95.7 °F 104.1 °F 72.1 °F 46% 29.90 in 10.0 mi Calm Calm - N/A   Clear
4:35 PM 95.9 °F 104.5 °F 72.3 °F 46% 29.89 in 10.0 mi Calm Calm - N/A   Clear
4:55 PM 96.3 °F 104.6 °F 71.6 °F 45% 29.88 in 10.0 mi Calm Calm - N/A   Clear
5:15 PM 95.9 °F 103.8 °F 71.6 °F 45% 29.88 in 10.0 mi Calm Calm - N/A   Clear
5:35 PM 93.6 °F 102.5 °F 73.2 °F 51% 29.88 in 10.0 mi Calm Calm - N/A   Clear
5:55 PM 89.6 °F 102.2 °F 77.0 °F 66% 29.90 in 10.0 mi West 4.6 mph - N/A   Scattered Clouds
6:15 PM 87.3 °F 94.5 °F 72.9 °F 62% 29.92 in 10.0 mi West 12.7 mph 19.6 mph N/A   Scattered Clouds
6:35 PM 83.8 °F 88.1 °F 70.2 °F 63% 29.91 in 10.0 mi WNW 5.8 mph - N/A   Clear
6:55 PM 83.1 °F 87.3 °F 70.3 °F 65% 29.91 in 10.0 mi Calm Calm - N/A   Clear
7:15 PM 83.3 °F 87.9 °F 70.7 °F 66% 29.90 in 10.0 mi Calm Calm - N/A   Clear
7:35 PM 84.0 °F 89.0 °F 71.2 °F 65% 29.91 in 10.0 mi Calm Calm - N/A   Clear
7:55 PM 84.0 °F 89.3 °F 71.8 °F 66% 29.91 in 10.0 mi Calm Calm - N/A   Clear
8:15 PM 82.2 °F 87.8 °F 73.2 °F 74% 29.91 in 10.0 mi Calm Calm - N/A   Clear
8:35 PM 81.1 °F 86.4 °F 73.6 °F 78% 29.92 in 10.0 mi Calm Calm - N/A   Clear
9:15 PM 80.6 °F 85.4 °F 73.4 °F 79% 29.92 in 10.0 mi Calm Calm - N/A   Clear
9:35 PM 79.5 °F - 73.8 °F 82% 29.92 in 10.0 mi Calm Calm - N/A   Clear
9:55 PM 78.8 °F - 72.9 °F 82% 29.93 in 10.0 mi Calm Calm - N/A   Clear
10:15 PM 78.1 °F - 72.9 °F 84% 29.93 in 10.0 mi Calm Calm - N/A   Clear
10:35 PM 77.5 °F - 73.4 °F 87% 29.93 in 10.0 mi Calm Calm - N/A   Clear
10:55 PM 77.0 °F - 73.4 °F 89% 29.94 in 10.0 mi Calm Calm - N/A   Clear
11:15 PM 76.3 °F - 73.0 °F 90% 29.94 in 10.0 mi Calm Calm - N/A   Clear
11:35 PM 76.1 °F - 73.2 °F 91% 29.95 in 7.0 mi Calm Calm - N/A   Clear
11:55 PM 75.7 °F - 72.9 °F 91% 29.95 in 7.0 mi Calm Calm - N/A   Clear